Find Explorer 11

NORAD ID: 107 Int'l Des: 1961 NU Owner: GSFC Country: US operational
LEO

Live Position

Loading 3D Globe...

About Explorer 11

Description loading...

Upcoming Passes

Passes for default location (London). Set your location on the main map for personalized predictions.

Altitude History

Loading altitude history...

Two-Line Element Set

1 00107U 61013A 26106.26022581 .00000933 00000-0 93175-4 0 9994
2 00107 28.7806 313.4490 0494110 270.0655 84.3323 14.21918693267674
Epoch: Apr 16, 2026 • Age: 7 hours

Current Status

Altitude 1170.3 km
Velocity 7.09 km/s
Sub-Earth Point 28.81°N, 9.09°W
Type other

Most Searched